#timestamp,LO_Frequency,Hit,StdDev 
1518955215.7,286047000.4,N
1518955235.5,286047001.0,N
1518955255.4,286047000.0,N
1518955275.2,286046998.5,N
1518955295.1,286047001.0,N
1518955296.0,286047001.0,N
1518955315.8,286046998.3,N
1518955335.6,286047000.4,N
1518955355.5,286047000.4,N
1518955375.3,286047000.0,N
1518955395.2,286046999.0,N
1518955415.9,286046996.5,Y
1518955435.7,286046996.7,P
1518955455.6,286046996.8,N
1518955475.4,286046998.6,N
1518955495.3,286047001.2,N
1518955515.1,286046999.1,N
1518955516.0,286046999.1,N
1518955535.8,286046998.8,N
1518955555.7,286046999.1,N
1518955575.5,286046999.5,N
1518955595.3,286046999.2,N
1518955615.2,286046998.7,N
1518955635.0,286046996.6,N
1518955635.9,286046996.6,N
1518955655.8,286046999.5,N
1518955675.6,286046996.7,N
1518955695.4,286046996.9,N
1518955715.3,286046999.1,N
1518955735.1,286046999.3,N
1518955755.9,286046999.1,N
1518955775.7,286047001.0,N
1518955795.5,286046999.4,N
1518955815.4,286046998.4,N
1518955835.2,286046999.2,N
1518955855.0,286046999.6,N
1518955856.0,286046999.6,N
1518955875.8,286046996.9,N
1518955895.6,286046998.7,N
1518955915.5,286047001.0,N
1518955935.3,286047000.6,N
1518955955.1,286047000.7,N
1518955975.9,286046998.3,N
1518955995.7,286046996.9,N
1518956015.6,286046999.3,N
1518956035.4,286046998.9,N
1518956055.2,286046998.5,N
1518956075.1,286046996.5,N
1518956076.0,286046996.5,N
1518956095.8,286046998.6,N
1518956115.6,286047000.7,N
1518956135.5,286046998.8,N
1518956155.3,286046998.6,N
1518956175.2,286046996.6,N
1518956195.9,286046999.6,N
1518956215.7,286046996.6,N
1518956235.6,286046996.6,N
1518956255.4,286046999.6,N
1518956275.2,286046996.5,N
1518956295.1,286046996.6,N
1518956296.0,286046996.6,N
1518956315.8,286046996.9,N
1518956335.7,286046999.6,N
1518956355.5,286046999.2,N
1518956375.3,286046998.4,N
1518956395.2,286046999.3,N
1518956415.0,286046999.3,N
1518956415.9,286046999.3,N
1518956435.8,286046999.5,N
1518956455.6,286046999.3,N
1518956475.4,286046998.9,N
1518956495.3,286046997.0,N
1518956515.1,286046996.6,N
1518956535.8,286046999.0,N
1518956555.7,286046997.0,N
1518956575.5,286046998.7,N
1518956595.4,286046998.8,N
1518956615.2,286046999.6,N
1518956635.0,286046996.6,N
1518956635.9,286046996.6,N
1518956655.8,286046996.9,N
1518956675.6,286046999.1,N
1518956695.4,286046998.2,N
1518956715.3,286046998.3,N
1518956735.1,286046998.4,N
1518956755.9,286046998.7,N
1518956775.7,286046999.5,N
1518956795.5,286046999.4,N
1518956815.4,286046998.5,N
1518956835.2,286046998.7,N
1518956855.0,286047000.9,N
1518956856.0,286047000.9,N
1518956875.8,286046998.8,N
1518956895.6,286046998.9,N
1518956915.5,286046999.1,N
1518956935.3,286046999.5,N
1518956955.1,286046998.1,N
1518956975.9,286047001.1,N
1518956995.7,286047000.7,N
1518957015.6,286046999.6,N
1518957035.4,286046997.3,N
1518957055.2,286046994.9,Y
1518957075.1,286046996.9,P
1518957076.0,286046996.9,P
1518957095.8,286046998.7,N
1518957115.6,286046999.4,N
1518957135.5,286046999.6,N
1518957155.3,286046998.1,N
1518957175.2,286046998.3,N
1518957195.0,286046998.5,N
1518957195.9,286046998.5,N
1518957215.7,286046998.5,N
1518957235.6,286047001.2,N
1518957255.4,286046998.7,N
1518957275.3,286047001.2,N
1518957295.1,286047001.2,N
1518957296.0,286047001.2,N
1518957315.8,286046999.5,N
1518957335.7,286046998.8,N
1518957355.5,286046999.2,N
1518957375.3,286046999.0,N
1518957395.2,286046998.3,N
1518957415.0,286046999.0,N
1518957415.9,286046999.0,N
1518957435.8,286046996.7,N
1518957455.6,286046999.5,N
1518957475.4,286046999.5,N
1518957495.3,286046997.0,N
1518957515.1,286046996.7,N
1518957535.9,286046998.7,N
1518957555.7,286046998.6,N
1518957575.5,286046996.9,N
1518957595.4,286046998.7,N
1518957615.2,286046998.7,N
1518957635.0,286046998.9,N
1518957635.9,286046998.9,N
1518957655.8,286047001.2,N
1518957675.6,286047000.7,N
1518957695.5,286046998.1,N
1518957715.3,286046998.7,N
1518957735.1,286046998.1,N
1518957755.9,286046998.1,N
1518957775.7,286046998.6,N
1518957795.5,286046999.3,N
1518957815.4,286046999.3,N
1518957835.2,286046998.9,N
1518957855.1,286047000.9,N
1518957856.0,286047000.9,N
1518957875.8,286046998.9,N
1518957895.6,286046998.4,N
1518957915.5,286046996.5,Y
1518957935.3,286046999.0,P
1518957955.2,286047000.9,P
1518957975.9,286046998.1,N
1518957995.7,286046998.1,N
1518958015.6,286047001.1,N
1518958035.4,286046998.9,N
1518958055.2,286046998.3,N
1518958075.1,286047000.3,N
1518958076.0,286047000.3,N
1518958095.8,286047002.4,N
1518958145.7,286047000.8,E
1518958155.6,286047001.1,N
1518958175.4,286047000.9,P
1518958195.6,286046998.6,P
1518958215.4,286047001.0,N
1518958235.3,286047001.2,N
1518958255.1,286046998.5,N
1518958275.9,286046999.5,N
1518958295.7,286047001.1,N
1518958315.6,286047000.7,N
1518958335.4,286046998.5,N
1518958355.2,286047000.0,N
1518958375.1,286047001.2,N
1518958376.0,286047001.2,N
1518958395.8,286046998.6,N
1518958415.7,286047000.6,N
1518958435.5,286047001.2,N
1518958455.3,286046998.1,N
1518958475.2,286047004.9,Y
1518958495.0,286047014.8,P
1518958495.9,286047014.8,N
1518958515.8,286047011.5,N
1518958535.6,286047009.4,N
1518958555.4,286047007.8,N
1518958575.3,286047007.0,N
1518958595.1,286047004.8,N
1518958615.8,286047002.9,N
1518958635.7,286047003.1,N
1518958655.5,286047004.0,N
1518958675.4,286047003.5,N
1518958695.2,286047004.2,N
1518958715.0,286047004.1,N
1518958715.9,286047004.1,N
1518958735.8,286047001.6,N
1518958755.6,286047001.7,N
1518958775.5,286047002.6,N
1518958795.3,286047002.1,N
